Weather reports worldwide

Advertisment
Leconfield, United Kingdom (3382): temperature & dewpoint: 18.04.2019 08:00:00 - 24.04.2019 08:00:00 (BST)Leconfield, United Kingdom (3382): temperature -20cm & temperature -100cm: 18.04.2019 08:00:00 - 24.04.2019 08:00:00 (BST)Leconfield, United Kingdom (3382): wind speed: 18.04.2019 08:00:00 - 24.04.2019 08:00:00 (BST)Leconfield, United Kingdom (3382): wind direction: 18.04.2019 08:00:00 - 24.04.2019 08:00:00 (BST)Leconfield, United Kingdom (3382): reduced air pressure: 18.04.2019 08:00:00 - 24.04.2019 08:00:00 (BST)Leconfield, United Kingdom (3382): visibility: 18.04.2019 08:00:00 - 24.04.2019 08:00:00 (BST)Leconfield, United Kingdom (3382): sunshine duration: 18.04.2019 08:00:00 - 24.04.2019 08:00:00 (BST)Leconfield, United Kingdom (3382): precipitation: 18.04.2019 08:00:00 - 24.04.2019 08:00:00 (BST)
Date & Time tt [°C] td [°C] tt -20cm [°C] tt -100cm [°C] ff [km/h] ff [kn] dd ppp [hPa] vv [km] sd [min] rr [mm]
24.04.2019 08:00:00 9,5 9,2 - - 11 6 NE 994,1 5 42 -
24.04.2019 07:00:00 6,1 5,9 - - 5 3 N 994,4 3,7 0 0,0
24.04.2019 06:00:00 5,4 5,1 - - 8 4 N 994,5 4,2 0 0,0
24.04.2019 05:00:00 5,5 5,1 - - 5 3 NNE 995,0 3,8 0 0,0
24.04.2019 04:00:00 6,0 5,4 - - 9 5 NNE 995,3 4,5 0 0,0
24.04.2019 03:00:00 6,5 5,8 - - 9 5 N 996,0 5 0 0,0
24.04.2019 02:00:00 6,6 5,9 - - 8 4 N 996,5 5 0 0,0
24.04.2019 01:00:00 7,0 6,0 - - 11 6 NNE 997,0 6 - 0,0
24.04.2019 00:00:00 6,8 5,9 - - 11 6 NNE 997,6 6 0 0,0
23.04.2019 23:00:00 6,7 5,8 - - 9 5 N 998,4 6 0 0,0
23.04.2019 22:00:00 7,1 5,9 - - 8 4 NNE 998,9 6 0 0,0
23.04.2019 21:00:00 7,8 6,4 - - 11 6 NE 999,4 6 0 0,0
23.04.2019 20:00:00 9,6 7,1 - - 13 7 ENE 999,6 8 0 0,0
23.04.2019 19:00:00 11,0 7,6 - - 15 8 E 999,5 10 36 0,0
23.04.2019 18:00:00 12,1 8,2 - - 18 10 E 999,6 9 60 0,0
23.04.2019 17:00:00 12,6 8,1 - - 18 10 E 999,8 9 48 0,0
23.04.2019 16:00:00 12,9 7,6 - - 22 12 E 1000,0 9 60 0,0
23.04.2019 15:00:00 12,9 7,7 - - 22 12 ENE 1000,4 10 48 0,0
23.04.2019 14:00:00 11,9 7,5 - - 21 11 E 1000,8 10 0 0,0
23.04.2019 13:00:00 12,8 7,6 - - 18 10 E 1001,1 10 42 0,0
23.04.2019 12:00:00 13,7 8,0 - - 16 9 ENE 1000,9 19 36 0,0
23.04.2019 11:00:00 12,0 6,6 - - 16 9 E 1001,5 10 0 0,0
23.04.2019 10:00:00 11,6 6,7 10,4 9,0 21 11 E 1001,5 10 0 0,0
23.04.2019 09:00:00 11,4 7,5 - - 16 9 E 1001,8 17 6 0,0
23.04.2019 08:00:00 9,5 7,7 - - 11 6 ENE 1001,9 10 0 0,0
23.04.2019 07:00:00 6,5 6,1 - - 5 3 NNE 1002,1 9 0 0,0
23.04.2019 06:00:00 5,4 4,9 - - 5 3 NNE 1001,9 8 0 0,0
23.04.2019 05:00:00 5,7 5,0 - - 2 1 N 1002,3 8 0 0,0
23.04.2019 04:00:00 6,7 5,9 - - 4 2 NNE 1002,4 8 0 0,0
23.04.2019 03:00:00 7,3 6,2 - - 5 3 NE 1002,7 9 0 0,0
23.04.2019 02:00:00 8,2 6,5 - - 5 3 N 1003,1 8 0 0,0
23.04.2019 01:00:00 9,0 7,6 - - 8 4 NNE 1003,5 8 - 0,0
23.04.2019 00:00:00 8,5 7,5 - - 4 2 NNE 1004,0 6 0 0,0
22.04.2019 23:00:00 8,0 6,8 - - 5 3 N 1004,4 5 0 0,0
22.04.2019 22:00:00 7,6 6,4 - - 8 4 NNE 1004,7 4,5 0 0,0
22.04.2019 21:00:00 8,7 6,8 - - 8 4 NE 1005,0 5 0 0,0
22.04.2019 20:00:00 10,6 7,7 - - 9 5 NE 1005,1 7 24 0,0
22.04.2019 19:00:00 12,8 7,9 - - 13 7 ENE 1005,1 8 60 0,0
22.04.2019 18:00:00 14,4 7,8 - - 15 8 ENE 1005,2 10 60 0,0
22.04.2019 17:00:00 16,2 8,0 - - 15 8 E 1005,6 12 60 0,0
22.04.2019 16:00:00 16,7 7,1 - - 16 9 E 1006,2 15 36 0,0
22.04.2019 15:00:00 18,8 6,8 - - 16 9 E 1006,7 11 60 0,0
22.04.2019 14:00:00 19,0 9,1 - - 15 8 E 1007,3 12 60 0,0
22.04.2019 13:00:00 16,9 9,6 - - 13 7 E 1008,1 10 60 0,0
22.04.2019 12:00:00 15,6 8,6 - - 11 6 E 1008,7 12 60 0,0
22.04.2019 11:00:00 15,0 8,9 - - 13 7 ENE 1009,3 10 60 0,0
22.04.2019 10:00:00 13,6 5,2 9,9 8,9 15 8 ENE 1009,8 10 60 0,0
22.04.2019 09:00:00 9,7 6,4 - - 5 3 N 1010,2 8 60 0,0
22.04.2019 08:00:00 5,5 4,8 - - 2 1 N 1010,8 5 60 0,0
22.04.2019 07:00:00 1,5 0,9 - - 4 2 WNW 1011,0 3,8 24 0,0
22.04.2019 06:00:00 0,3 -0,5 - - 4 2 W 1011,4 2,8 0 0,0
22.04.2019 05:00:00 0,9 0,2 - - 4 2 W 1011,7 3,4 0 0,0
22.04.2019 04:00:00 1,3 0,4 - - 4 2 W 1012,3 3,2 0 0,0
22.04.2019 03:00:00 2,2 1,1 - - 4 2 WNW 1012,9 4,8 0 0,0
22.04.2019 02:00:00 2,9 1,6 - - 4 2 NW 1013,5 5 0 0,0
22.04.2019 01:00:00 4,0 2,3 - - 2 1 NE 1014,0 6 - 0,0
22.04.2019 00:00:00 5,1 3,7 - - 5 3 E 1014,3 5 0 0,0
21.04.2019 23:00:00 6,7 3,4 - - 4 2 ESE 1014,7 8 0 0,0
21.04.2019 22:00:00 7,6 3,0 - - 8 4 E 1015,1 10 0 0,0
21.04.2019 21:00:00 10,5 2,9 - - 9 5 ESE 1015,6 7 0 0,0
21.04.2019 20:00:00 13,2 1,7 - - 11 6 SE 1015,8 10 54 0,0
21.04.2019 19:00:00 15,6 2,5 - - 16 9 SE 1016,1 10 60 0,0
21.04.2019 18:00:00 17,5 3,6 - - 18 10 SE 1016,5 13 60 0,0
21.04.2019 17:00:00 19,1 4,2 - - 15 8 SE 1017,2 40 60 0,0
21.04.2019 16:00:00 19,6 2,9 - - 21 11 SSE 1018,0 35 60 0,0
21.04.2019 15:00:00 20,2 2,5 - - 18 10 SE 1018,7 25 60 0,0
21.04.2019 14:00:00 21,0 4,3 - - 15 8 SE 1019,4 10 60 0,0
21.04.2019 13:00:00 20,6 4,6 - - 15 8 SSE 1020,4 30 60 0,0
21.04.2019 12:00:00 19,6 5,1 - - 11 6 SE 1021,1 17 60 0,0
21.04.2019 11:00:00 18,3 6,5 - - 11 6 SSE 1021,9 10 60 0,0
21.04.2019 10:00:00 15,2 9,0 9,2 8,7 5 3 SE 1022,7 10 60 0,0
21.04.2019 09:00:00 8,9 8,3 - - 2 1 ENE 1023,4 6 60 0,0
21.04.2019 08:00:00 4,5 4,5 - - 0 0 N 1023,8 2,0 30 0,0
21.04.2019 07:00:00 1,6 1,4 - - 0 0 N 1024,2 0,1 0 0,0
21.04.2019 06:00:00 1,3 1,1 - - 0 0 N 1024,5 - 0 0,0
21.04.2019 05:00:00 1,0 0,6 - - 2 1 WSW 1025,1 - 0 0,0
21.04.2019 04:00:00 1,9 1,4 - - 2 1 SW 1025,8 3,2 0 0,0
21.04.2019 03:00:00 2,0 1,4 - - 4 2 WSW 1026,4 3,1 0 0,0
21.04.2019 02:00:00 2,9 2,3 - - 4 2 W 1027,0 3,8 0 0,0
21.04.2019 01:00:00 3,3 2,3 - - 2 1 WNW 1027,6 4,2 - 0,0
21.04.2019 00:00:00 4,3 3,2 - - 0 0 N 1028,0 4,1 0 0,0
20.04.2019 23:00:00 6,7 5,8 - - 4 2 N 1028,7 7 0 0,0
20.04.2019 22:00:00 8,1 6,4 - - 4 2 ENE 1028,8 6 0 0,0
20.04.2019 21:00:00 9,3 6,5 - - 5 3 E 1029,1 7 0 0,0
20.04.2019 20:00:00 12,9 7,5 - - 8 4 E 1029,1 9 42 0,0
20.04.2019 19:00:00 16,4 7,3 - - 9 5 E 1029,2 12 60 0,0
20.04.2019 18:00:00 18,5 7,8 - - 9 5 E 1029,5 10 60 0,0
20.04.2019 17:00:00 19,8 7,8 - - 11 6 E 1029,9 10 60 0,0
20.04.2019 16:00:00 20,1 6,9 - - 11 6 E 1030,4 10 60 0,0
20.04.2019 15:00:00 20,3 5,0 - - 13 7 E 1030,8 30 60 0,0
20.04.2019 14:00:00 20,1 8,1 - - 13 7 E 1031,4 18 60 0,0
20.04.2019 13:00:00 19,7 9,0 - - 9 5 E 1031,8 15 60 0,0
20.04.2019 12:00:00 18,8 8,4 - - 5 3 E 1032,4 10 60 0,0
20.04.2019 11:00:00 16,8 9,1 - - 4 2 ENE 1032,6 17 60 0,0
20.04.2019 10:00:00 14,7 9,3 8,9 8,7 4 2 ENE 1032,5 10 60 0,0
20.04.2019 09:00:00 10,7 8,2 - - 2 1 NNW 1032,6 10 60 0,0
20.04.2019 08:00:00 6,8 6,7 - - 2 1 NW 1032,7 9 54 0,0
20.04.2019 07:00:00 1,8 1,5 - - 4 2 W 1032,7 5 6 0,0
20.04.2019 06:00:00 0,9 0,5 - - 2 1 NW 1032,5 4,2 0 0,0
20.04.2019 05:00:00 1,2 0,7 - - 2 1 WNW 1032,5 3,3 0 0,0
20.04.2019 04:00:00 1,9 1,4 - - 2 1 WSW 1032,7 4,3 0 0,0
20.04.2019 03:00:00 1,8 1,2 - - 4 2 W 1032,9 5 0 0,0
20.04.2019 02:00:00 2,3 1,6 - - 4 2 WNW 1032,9 3,9 0 0,0
20.04.2019 01:00:00 2,5 1,8 - - 4 2 WNW 1033,0 5 - 0,0
20.04.2019 00:00:00 3,7 2,5 - - 2 1 NNW 1033,2 5 0 0,0
19.04.2019 23:00:00 6,0 5,2 - - 5 3 NNW 1033,2 6 0 0,0
19.04.2019 22:00:00 6,5 5,5 - - 4 2 NNE 1032,9 8 0 0,0
19.04.2019 21:00:00 7,5 5,7 - - 5 3 ENE 1032,7 8 0 0,0
19.04.2019 20:00:00 9,7 6,5 - - 9 5 NNE 1032,5 10 36 0,0
19.04.2019 19:00:00 13,2 6,9 - - 11 6 NE 1031,9 10 60 0,0
19.04.2019 18:00:00 14,2 7,0 - - 13 7 NE 1031,6 12 60 0,0
19.04.2019 17:00:00 15,7 7,6 - - 13 7 E 1031,4 16 60 0,0
19.04.2019 16:00:00 16,4 8,4 - - 15 8 ENE 1031,6 12 60 0,0
19.04.2019 15:00:00 16,5 8,5 - - 15 8 ENE 1031,7 9 60 0,0
19.04.2019 14:00:00 16,7 9,4 - - 13 7 ENE 1031,7 15 60 0,0
19.04.2019 13:00:00 15,3 8,6 - - 9 5 NNE 1031,8 3,0 60 0,0
19.04.2019 12:00:00 14,7 9,2 - - 13 7 NE 1031,5 10 60 0,0
19.04.2019 11:00:00 13,9 9,5 - - 9 5 ENE 1031,6 10 54 0,0
19.04.2019 10:00:00 13,4 9,2 8,7 8,4 9 5 ENE 1031,6 11 60 0,0
19.04.2019 09:00:00 11,5 9,5 - - 11 6 NE 1031,2 9 60 0,0
19.04.2019 08:00:00 8,5 7,4 - - 8 4 NNE 1031,0 9 60 0,0
19.04.2019 07:00:00 5,8 5,5 - - 5 3 N 1030,8 5 0 0,0
19.04.2019 06:00:00 4,6 4,0 - - 5 3 N 1030,5 4,8 0 0,0
19.04.2019 05:00:00 4,4 3,9 - - 8 4 NE 1030,3 4,8 0 0,0
19.04.2019 04:00:00 4,3 3,7 - - 4 2 N 1030,1 6 0 0,0
19.04.2019 03:00:00 4,9 4,3 - - 5 3 NNW 1030,0 6 0 0,0
19.04.2019 02:00:00 4,7 3,9 - - 5 3 NNW 1030,0 5 0 0,0
19.04.2019 01:00:00 5,4 4,8 - - 8 4 N 1030,1 5 - 0,0
19.04.2019 00:00:00 5,6 4,9 - - 5 3 N 1030,2 6 0 0,0
18.04.2019 23:00:00 5,9 5,1 - - 8 4 NE 1029,8 5 0 0,0
18.04.2019 22:00:00 6,3 5,6 - - 8 4 NNE 1029,4 5 0 0,0
18.04.2019 21:00:00 7,1 6,0 - - 9 5 NE 1028,8 6 0 0,0
18.04.2019 20:00:00 8,7 6,7 - - 11 6 ENE 1028,3 8 6 0,0
18.04.2019 19:00:00 10,0 7,2 - - 15 8 ENE 1027,8 10 30 0,0
18.04.2019 18:00:00 11,0 7,3 - - 15 8 E 1027,3 9 18 0,0
18.04.2019 17:00:00 11,8 7,5 - - 16 9 E 1027,2 8 60 0,0
18.04.2019 16:00:00 13,0 7,6 - - 16 9 E 1027,1 11 60 0,0
18.04.2019 15:00:00 13,9 7,5 - - 21 11 ENE 1027,0 10 60 0,0
18.04.2019 14:00:00 14,8 8,1 - - 16 9 E 1026,8 10 60 0,0
18.04.2019 13:00:00 13,9 7,4 - - 16 9 E 1027,0 9 60 0,0
18.04.2019 12:00:00 14,1 7,5 - - 15 8 E 1026,9 10 60 0,0
18.04.2019 11:00:00 13,7 8,9 - - 18 10 ENE 1026,9 8 60 0,0
18.04.2019 10:00:00 12,3 9,0 8,2 8,2 15 8 NE 1027,0 7 60 0,0
18.04.2019 09:00:00 10,4 9,1 - - 13 7 NE 1027,0 6 60 0,0
18.04.2019 08:00:00 7,4 7,4 - - 8 4 N 1026,5 3,0 6 0,0

tt = temperature
td = dewpoint
tt -20cm = temperature -20cm
tt -100cm = temperature -100cm
ff = wind speed
dd = wind direction
ppp = reduced air pressure
vv = visibility
sd = sunshine duration
rr = precipitation

Next stations